[Date Prev][Date Next][Thread Prev][Thread Next] - [Date Index][Thread Index][Author Index]
2 Line ISS Keps 3-31
- Subject: [sarex] 2 Line ISS Keps 3-31
- From: "Dave Larsen PhD" <doc@xxxxxxxxxxx>
- Date: Thu, 31 Mar 2005 03:45:13 -0800
ISS
1 25544U 98067A 05090.33909722 .00016495 00000-0 13611-3 0 1351
2 25544 051.6462 299.2671 0005572 314.4636 027.1624 15.70476561363431
----
Via the sarex mailing list at AMSAT.ORG courtesy of AMSAT-NA.
To unsubscribe, send "unsubscribe sarex" to Majordomo@amsat.org
AMSAT Home